This is the latest recevied weather packets stored in our database for station/object KB1RMA-4. If no packets are shown the sender has not sent any weather packets the latest 10 day(s).
| Time | Temp. | Humidity | Pressure | Rain* | Wind** | Luminosity | Snow |
|---|---|---|---|---|---|---|---|
| 1787675071 | 25° C | 51% | 1013.3 hPa | 0 mm | - | 487 W/m² | - |
| 1787674766 | 25° C | 53% | 1013.1 hPa | 0 mm | - | 172 W/m² | - |
| 1787674462 | 26.67° C | 50% | 1013.5 hPa | 0 mm | - | 799 W/m² | - |
| 1787674157 | 26.11° C | 49% | 1013.4 hPa | 0 mm | - | 847 W/m² | - |
| 1787673851 | 26.11° C | 51% | 1013.4 hPa | 0 mm | - | 832 W/m² | - |
| 1787673547 | 25.56° C | 49% | 1013.8 hPa | 0 mm | - | 754 W/m² | - |
| 1787673247 | 25° C | 50% | 1013.5 hPa | 0 mm | - | 749 W/m² | - |
| 1787672946 | 26.11° C | 48% | 1013.5 hPa | 0 mm | - | 782 W/m² | - |
| 1787672642 | 25.56° C | 49% | 1013.5 hPa | 0 mm | - | 730 W/m² | - |
| 1787672341 | 25.56° C | 51% | 1013.5 hPa | 0 mm | - | 802 W/m² | - |
| 1787672036 | 25.56° C | 53% | 1013.5 hPa | 0 mm | - | 755 W/m² | - |
| 1787671731 | 25° C | 51% | 1013.6 hPa | 0 mm | - | 808 W/m² | - |
| 1787671426 | 25.56° C | 52% | 1013.7 hPa | 0 mm | - | 234 W/m² | - |
| 1787671121 | 25.56° C | 51% | 1013.5 hPa | 0 mm | - | 762 W/m² | - |
| 1787670817 | 25.56° C | 52% | 1013.6 hPa | 0 mm | - | 738 W/m² | - |
| 1787670517 | 25.56° C | 52% | 1013.9 hPa | 0 mm | - | 696 W/m² | - |
| 1787670211 | 24.44° C | 52% | 1013.5 hPa | 0 mm | - | 670 W/m² | - |
| 1787669910 | 25° C | 54% | 1013.8 hPa | 0 mm | - | 716 W/m² | - |
| 1787669606 | 25° C | 56% | 1013.7 hPa | 0 mm | - | 710 W/m² | - |
| 1787669301 | 24.44° C | 55% | 1013.9 hPa | 0 mm | - | 724 W/m² | - |
| 1787668996 | 24.44° C | 54% | 1013.7 hPa | 0 mm | - | 732 W/m² | - |
| 1787668693 | 24.44° C | 53% | 1013.8 hPa | 0 mm | - | 734 W/m² | - |
| 1787668389 | 23.89° C | 53% | 1014 hPa | 0 mm | - | 741 W/m² | - |
| 1787668089 | 23.33° C | 56% | 1013.7 hPa | 0 mm | - | 725 W/m² | - |
| 1787667783 | 23.33° C | 58% | 1013.8 hPa | 0 mm | - | 703 W/m² | - |
* Rain latest hour (hover to see other rain measurements)
** Current wind speed in m/s (hover to see current wind gust speed)